[[{"header":{"parameterUnit":"m.s-1","parameterCategory":1,"la1":30.2991,"la2":30.254,"lo1":-89.0895,"lo2":-89.0444,"dy":0.0017,"dx":0.0017,"nx":28,"ny":28,"refTime":"2025-04-08T09:00:00:Z","depth":0,"parameterNumber":2,"parameterNumberName":"U-component_of_WINDS"},"data":[0,0,0,0,0,0,0,0,0,0,0,0,0,0,0,0,0,0,0,0,0,0,0,0,0,0,0,0,0,0,0,0,0,0,0,0,0,0,0,0,0,0,0,0,0,0,0,0,0,0,0,0,0,0,0,0,0,0,4.2458,4.2459,0,4.2567,4.2568,4.2569,4.2458,4.2454,4.2449,4.2445,4.2558,4.2565,4.2572,0,0,0,0,0,0,0,0,0,0,0,0,0,4.2152,4.2158,4.2458,4.2459,4.2461,4.2567,4.2568,4.257,4.2459,4.2453,4.2448,4.2443,4.2556,4.2564,4.2573,0,0,0,0,0,0,0,0,0,0,0,0,0,4.2275,4.216,4.2458,4.2418,4.2416,4.2567,4.2568,4.257,4.246,4.2453,4.2447,4.2441,4.2553,4.2564,4.2574,4.277,0,0,4.2606,4.2611,0,0,0,0,0,0,0,0,4.2268,4.2287,4.2423,4.2421,4.2419,4.2492,4.2502,4.2637,4.2461,4.2443,4.2445,4.2437,4.2542,4.2553,4.2588,4.2775,4.278,4.2607,4.2614,4.2618,4.2621,0,0,0,0,0,0,0,4.226,4.2281,4.2501,4.2425,4.2422,4.2394,4.2404,4.2527,4.2528,4.2444,4.2436,4.2451,4.2539,4.2578,4.2589,4.2782,4.2607,4.2616,4.2623,4.2627,4.313,4.3137,0,0,0,0,0,0,4.2256,4.2275,4.2498,4.2504,4.2326,4.2405,4.2416,4.2475,4.2526,4.2528,4.2456,4.2445,4.2563,4.2577,4.2593,4.2822,4.2618,4.2628,4.2634,4.3123,4.3132,4.3139,0,0,0,0,0,0,4.225,4.2277,4.2493,4.2388,4.2413,4.2417,4.2484,4.2481,4.2519,4.2535,4.2535,4.2495,4.2558,4.2578,4.2725,4.2825,4.2633,4.2643,4.3115,4.3126,4.3135,4.3285,0,0,0,0,0,0,4.2241,4.2275,4.2351,4.239,4.2419,4.2625,4.249,4.2488,4.2537,4.2524,4.2572,4.2573,4.2555,4.271,4.2736,4.2836,4.2651,4.3106,4.312,4.3132,4.3271,4.3299,4.3323,0,0,0,0,0,4.2231,4.239,4.2355,4.2383,4.2513,4.2631,4.2648,4.2623,4.2546,4.2621,4.263,4.2572,4.281,4.2726,4.2754,4.2859,4.31,4.3116,4.3131,4.3259,4.3294,4.3323,0,0,0,0,0,0,4.2364,4.2395,4.2356,4.2533,4.258,4.2612,4.2706,4.266,4.2731,4.2715,4.2681,4.2693,4.2848,4.2868,4.2775,4.3048,4.2942,4.2964,4.303,4.3063,4.3088,4.308,4.266,0,0,0,0,0,4.2414,4.2507,4.2529,4.2682,4.2708,4.2703,4.2754,4.273,4.2777,4.2797,4.2817,4.2866,4.2951,4.3008,4.3088,4.3273,4.328,4.3359,4.3385,4.3406,4.3425,4.352,4.3555,4.3191,4.3191,4.319,0,0,4.2518,4.2546,4.2608,4.271,4.2743,4.2839,4.2721,4.2829,4.2899,4.2814,4.2953,4.2969,4.3021,4.3187,4.3261,4.3209,4.3527,4.3426,4.3443,4.3451,4.354,4.3575,4.3605,4.3202,4.32,4.3198,0,0,4.2757,4.2789,4.2918,4.2953,4.3004,4.3,4.3031,4.3069,4.3076,4.3215,4.3151,4.3234,4.3382,4.342,4.3459,4.3706,4.3654,4.3733,4.387,4.3963,4.3991,4.4017,4.4102,4.4133,4.3753,4.3753,4.3753,0,4.288,4.3023,4.2991,4.3102,4.3147,4.3071,4.3201,4.3237,4.3312,4.3345,4.3284,4.3465,4.3495,4.3667,4.3727,4.3762,4.3794,4.3728,4.399,4.4015,4.4038,4.4119,4.4151,4.3762,4.3761,4.376,4.3759,0,4.317,4.3269,4.3367,4.3439,4.3496,4.3616,4.3601,4.3661,4.3631,4.3632,4.3772,4.3805,4.3887,4.3926,4.39,4.4094,4.4058,4.3995,4.3887,4.4082,4.4157,4.4188,4.3775,4.3772,4.3769,4.3767,0,0,4.3499,4.3548,4.3584,4.3614,4.3663,4.3739,4.3853,4.3933,4.3984,4.4038,4.4131,4.4256,4.4196,4.424,4.4216,4.4298,4.4487,4.4223,4.4224,4.4269,4.4699,4.4746,4.4782,4.4453,4.4458,4.4463,4.4694,0,4.3736,4.3935,4.3907,4.4098,4.4187,4.4114,4.4213,4.4253,4.4256,4.4332,4.4335,4.4422,4.4338,4.4363,4.4441,4.4448,4.4573,4.4431,4.4538,4.4542,4.4526,4.4822,4.4873,4.5089,4.4723,4.4728,4.4732,0,4.4041,4.4102,4.4301,4.4331,4.4368,4.4458,4.4526,4.4599,4.4642,4.4638,4.4685,4.4644,4.4757,4.4647,4.48,4.4704,4.4746,4.4755,4.4763,4.4771,4.4649,4.4837,4.5158,4.519,4.4779,4.4775,4.4772,0,4.4257,4.439,4.4524,4.4553,4.4593,4.4657,4.4676,4.4712,4.476,4.4819,4.4849,4.4921,4.4961,4.5017,4.4996,4.4918,4.5152,4.5042,4.5151,4.5151,4.5203,4.52,4.5534,4.5233,4.5233,4.5232,4.5231,0,4.4524,4.4649,4.4621,4.4705,4.484,4.4806,4.4941,4.4951,4.4983,4.5065,4.5007,4.5086,4.5054,4.513,4.5115,4.5242,4.5261,4.526,4.5254,4.5264,4.5264,4.5291,4.5275,4.5241,4.5239,4.5237,4.5236,0,4.479,4.4777,4.4918,4.4943,4.4951,4.505,4.507,4.5147,4.5143,4.5248,4.5271,4.5266,4.5352,4.5336,4.5433,4.5422,4.558,4.5557,4.5566,4.5559,4.5668,4.5658,4.603,4.6076,4.5747,4.575,4.5753,0,4.4961,4.5054,4.5087,4.5137,4.516,4.5243,4.529,4.5259,4.531,4.5363,4.5433,4.5513,4.5575,4.5716,4.572,4.5792,4.5769,4.5894,4.5779,4.5785,4.5768,4.5762,4.577,4.5917,4.5921,4.5924,4.5926,0,4.5265,4.5252,4.5323,4.539,4.5447,4.5499,4.5545,4.559,4.5562,4.5622,4.5708,4.5757,4.5852,4.5931,4.5997,4.6016,4.5967,4.5962,4.5991,4.6002,4.6002,4.6001,4.5626,4.5954,4.5951,4.5949,4.5948,4.5947,4.5487,4.5564,4.5598,4.5677,4.5708,4.5751,4.5823,4.5827,4.5898,4.5972,4.5949,4.6046,4.6081,4.6164,4.619,4.6265,4.6218,4.626,4.6271,4.6281,4.6293,4.5991,4.6277,4.6276,4.6275,4.6275,4.6274,0,4.5786,4.5803,4.5876,4.594,4.6001,4.5947,4.5994,4.6049,4.6134,4.6171,4.6233,4.6329,4.6405,4.6414,4.6485,4.6542,4.6521,4.6562,4.6557,4.6561,4.6332,4.6299,4.6577,4.6577,4.6577,4.6577,4.6577,4.6577,4.5949,4.6076,4.6067,4.6207,4.6223,4.6316,4.6347,4.6386,4.6414,4.6524,4.6586,4.6591,4.6615,4.6686,4.6752,4.6753,4.6781,4.683,4.6822,4.6608,4.6578,4.6549,4.6518,4.6837,4.6837,4.7044,4.7046,4.7047]},{"header":{"parameterUnit":"m.s-1","parameterCategory":1,"la1":30.2991,"la2":30.254,"lo1":-89.0895,"lo2":-89.0444,"dy":0.0017,"dx":0.0017,"nx":28,"ny":28,"refTime":"2025-04-08T09:00:00:Z","depth":0,"parameterNumber":3,"parameterNumberName":"V-component_of_WINDS"},"data":[0,0,0,0,0,0,0,0,0,0,0,0,0,0,0,0,0,0,0,0,0,0,0,0,0,0,0,0,0,0,0,0,0,0,0,0,0,0,0,0,0,0,0,0,0,0,0,0,0,0,0,0,0,0,0,0,0,0,3.7715,3.7717,0,3.783,3.7831,3.7833,3.7815,3.7813,3.7811,3.7809,3.7921,3.7926,3.7931,0,0,0,0,0,0,0,0,0,0,0,0,0,3.7473,3.7478,3.7715,3.7717,3.7718,3.783,3.7832,3.7833,3.7815,3.7813,3.781,3.7808,3.792,3.7926,3.7931,0,0,0,0,0,0,0,0,0,0,0,0,0,3.7582,3.7479,3.7715,3.7723,3.7725,3.783,3.7832,3.7833,3.7816,3.7813,3.781,3.7807,3.7918,3.7925,3.7932,3.8035,0,0,3.7954,3.7957,0,0,0,0,0,0,0,0,3.7576,3.7591,3.772,3.7722,3.7725,3.7805,3.7787,3.7901,3.7816,3.7781,3.7809,3.7805,3.7885,3.7895,3.7922,3.8041,3.8045,3.7955,3.7959,3.7962,3.7964,0,0,0,0,0,0,0,3.7568,3.7586,3.776,3.7722,3.7725,3.7718,3.773,3.7809,3.7848,3.7784,3.7783,3.7797,3.7885,3.7915,3.7925,3.8047,3.7955,3.7961,3.7966,3.7968,3.8251,3.8254,0,0,0,0,0,0,3.756,3.758,3.7757,3.7764,3.7642,3.7725,3.7739,3.7782,3.7847,3.7854,3.7799,3.7796,3.7905,3.7916,3.7929,3.8051,3.7962,3.7969,3.7973,3.8248,3.8252,3.8255,0,0,0,0,0,0,3.7554,3.7576,3.7752,3.7672,3.7694,3.7732,3.7781,3.7786,3.7816,3.7859,3.7865,3.7823,3.7903,3.7919,3.8008,3.8054,3.7972,3.7979,3.8244,3.8249,3.8253,3.8297,0,0,0,0,0,0,3.7548,3.7574,3.7615,3.7673,3.7698,3.7832,3.7784,3.779,3.7829,3.7825,3.7883,3.7889,3.7902,3.7998,3.8016,3.8063,3.7985,3.824,3.8246,3.8252,3.8292,3.8303,3.8313,0,0,0,0,0,3.7539,3.7623,3.7617,3.7639,3.7751,3.7835,3.7849,3.7863,3.7833,3.7873,3.79,3.7887,3.8047,3.8007,3.8027,3.8077,3.8237,3.8245,3.8251,3.8287,3.8301,3.8312,0,0,0,0,0,0,3.7569,3.7631,3.7625,3.7731,3.7778,3.7832,3.7883,3.7878,3.7933,3.7927,3.794,3.7953,3.8043,3.807,3.8024,3.8178,3.8138,3.8149,3.8158,3.8171,3.8181,3.8172,3.7991,0,0,0,0,0,3.7588,3.7653,3.7703,3.779,3.7814,3.7845,3.7882,3.7889,3.7937,3.7957,3.799,3.8036,3.8096,3.8135,3.8193,3.8296,3.8306,3.834,3.835,3.8359,3.8368,3.842,3.8435,3.8279,3.8279,3.8278,0,0,3.7627,3.7669,3.7709,3.7797,3.7835,3.7899,3.7862,3.7932,3.7979,3.7967,3.8053,3.8079,3.8131,3.8227,3.8271,3.8251,3.8413,3.8368,3.8374,3.8379,3.8429,3.8444,3.8457,3.8283,3.8283,3.8282,0,0,3.7731,3.7771,3.7847,3.7885,3.7942,3.7961,3.798,3.8034,3.8051,3.8139,3.813,3.8185,3.8289,3.8325,3.8357,3.8473,3.8462,3.8491,3.8544,3.8595,3.8607,3.8618,3.8656,3.867,3.85,3.8501,3.8501,0,3.7772,3.7871,3.7886,3.7957,3.7995,3.7988,3.8063,3.8098,3.8171,3.8196,3.8173,3.8302,3.8337,3.8439,3.8467,3.8495,3.8513,3.8484,3.8605,3.8616,3.8626,3.8662,3.8677,3.8504,3.8503,3.8503,3.8503,0,3.7917,3.7985,3.8039,3.811,3.8154,3.8227,3.825,3.8293,3.8295,3.8316,3.8402,3.8444,3.8508,3.8533,3.8537,3.8635,3.8621,3.8602,3.8561,3.8644,3.8678,3.8692,3.8508,3.8507,3.8506,3.8505,0,0,3.8043,3.812,3.814,3.817,3.8232,3.8284,3.8354,3.8419,3.8453,3.8503,3.856,3.8648,3.8629,3.8666,3.8673,3.8718,3.8802,3.8692,3.8694,3.8709,3.8909,3.8921,3.8937,3.8796,3.8799,3.8801,3.8903,0,3.815,3.8277,3.8292,3.8404,3.8465,3.8458,3.8519,3.8562,3.8583,3.8636,3.8658,3.8719,3.8692,3.8713,3.8758,3.8782,3.8842,3.8775,3.8846,3.8848,3.8831,3.8956,3.8969,3.9064,3.8917,3.892,3.8921,0,3.8293,3.8347,3.8465,3.8516,3.8542,3.8597,3.8655,3.8707,3.8754,3.8766,3.8806,3.8806,3.8876,3.8833,3.8927,3.8882,3.8911,3.8927,3.8931,3.8936,3.8888,3.8961,3.9095,3.9108,3.8943,3.8941,3.894,0,3.8368,3.8471,3.8554,3.8581,3.8643,3.8681,3.8708,3.8753,3.8789,3.884,3.8863,3.8921,3.8952,3.8995,3.9009,3.8978,3.9102,3.9061,3.911,3.911,3.9135,3.9133,3.9273,3.9159,3.9159,3.9158,3.9158,0,3.8485,3.8557,3.8589,3.864,3.8718,3.8734,3.8811,3.8836,3.8875,3.8928,3.8926,3.8976,3.8993,3.9045,3.9057,3.9131,3.9145,3.9154,3.9156,3.9153,3.9151,3.9171,3.9163,3.9162,3.9161,3.9161,3.916,0,3.8583,3.8607,3.8697,3.8748,3.8762,3.8818,3.886,3.8907,3.8927,3.8995,3.9011,3.9042,3.9102,3.9122,3.9195,3.9202,3.9287,3.9285,3.9272,3.9271,3.9318,3.9312,3.9474,3.9494,3.9369,3.937,3.9371,0,3.8654,3.8709,3.8766,3.8802,3.8831,3.889,3.8927,3.8944,3.8982,3.9038,3.9078,3.9138,3.9187,3.9284,3.931,3.9365,3.9362,3.9415,3.937,3.9364,3.9359,3.9354,3.9358,3.9422,3.9424,3.9425,3.9426,0,3.8778,3.8787,3.8842,3.89,3.8945,3.8992,3.9037,3.9066,3.9088,3.9131,3.9194,3.9231,3.9306,3.9364,3.9419,3.9444,3.9437,3.944,3.9453,3.9449,3.9438,3.9441,3.9292,3.9435,3.9434,3.9434,3.9433,3.9433,3.8862,3.8909,3.8956,3.9016,3.9052,3.9094,3.914,3.9165,3.9218,3.9281,3.9287,3.9353,3.9396,3.947,3.9497,3.9547,3.9532,3.9553,3.9557,3.9561,3.9563,3.9433,3.9558,3.9558,3.9557,3.9557,3.9557,0,3.8982,3.9012,3.9068,3.913,3.9177,3.9169,3.9217,3.9256,3.9315,3.9356,3.9404,3.9474,3.953,3.9562,3.9617,3.9651,3.9648,3.9664,3.966,3.9665,3.9576,3.9557,3.9665,3.9665,3.9665,3.9665,3.9665,3.9665,3.905,3.9129,3.9143,3.9238,3.9266,3.9332,3.936,3.9397,3.943,3.9508,3.9556,3.9576,3.9612,3.967,3.972,3.9727,3.9746,3.9763,3.9768,3.9683,3.9672,3.9662,3.9644,3.9768,3.9768,3.9853,3.9854,3.9855]}]]